Probability
0 0 0 0 0 0 0 0 0 0 0 0 0 0 0 0 0 1 1 0 0 0 0 0 0 0 0 0 0 0 0 0 0 0 0 0 0 0 0 0 0 0 0
0 0 0 0 0 0 0 0 0 0 0 0 0 0 0 0 1 2 2 1 0 0 0 0 0 0 0 0 0 0 0 0 0 0 0 0 0 0 0 0 0 0 0
0 0 0 0 0 0 0 0 0 0 0 0 0 0 0 0 1 2 2 1 0 0 0 0 0 0 0 0 0 0 0 0 0 0 0 0 0 0 0 0 0 0 0
0 0 0 0 0 0 0 0 0 0 0 0 0 0 0 0 0 1 1 0 0 0 0 0 0 0 0 0 0 0 0 0 0 0 0 1 0 0 0 0 0 0 0
0 0 0 0 0 0 0 0 0 0 0 0 0 0 0 0 0 0 0 0 0 0 0 0 0 0 0 0 0 0 0 0 0 0 0 0 0 0 0 0 0 0 0
0 0 0 0 0 0 0 0 0 0 0 0 0 0 0 0 0 0 0 0 0 0 0 0 0 0 0 0 0 0 0 0 0 0 0 0 0 0 0 0 0 0 0
0 0 0 0 0 0 0 0 0 0 0 0 0 0 0 0 0 0 0 0 0 0 0 0 0 0 0 0 0 0 0 0 0 0 0 0 0 0 0 0 0 0 0
0 0 0 0 0 0 0 0 0 0 0 0 0 0 0 0 0 0 0 0 0 0 0 0 0 0 0 0 0 0 0 0 0 0 0 0 0 0 0 0 0 0 0
0 0 0 0 0 0 0 0 0 0 0 0 0 0 0 0 0 0 0 0 0 0 0 0 0 0 0 0 0 0 0 0 0 0 0 0 0 0 0 0 0 0 0
0 0 0 0 0 0 0 0 0 0 0 0 0 0 0 0 0 0 0 0 0 0 0 0 0 0 0 0 0 0 0 0 0 0 0 0 0 0 0 0 0 0 0
0 0 0 0 0 0 0 0 0 0 0 0 0 0 0 0 0 0 0 0 0 0 0 0 0 0 0 0 0 0 0 0 0 0 0 0 0 0 0 0 0 0 0
0 0 0 0 0 0 0 0 0 0 0 0 0 0 0 0 0 0 0 0 0 0 0 0 0 0 0 0 0 0 0 0 0 0 0 0 0 0 0 0 0 0 0
0 0 0 0 0 0 0 0 0 0 0 0 0 0 0 0 0 0 0 0 0 0 0 0 0 0 0 0 0 0 0 0 0 0 0 0 0 0 0 0 0 0 0
0 0 0 0 0 0 0 0 0 0 0 0 0 0 0 0 0 0 0 0 0 0 0 1 1 0 0 0 0 0 0 0 0 0 0 0 0 0 0 0 0 0 0
0 0 0 0 0 0 0 0 0 0 0 0 0 0 0 0 0 0 0 0 0 0 0 1 2 1 0 0 0 0 0 0 0 0 0 0 0 0 0 0 0 0 0
0 0 0 0 0 0 0 0 0 0 0 0 0 0 0 0 0 0 0 0 0 0 0 1 2 1 0 0 0 0 0 0 0 0 0 0 0 0 0 0 0 0 0
0 0 0 0 0 0 0 0 0 0 0 0 0 0 0 0 0 0 0 0 0 0 0 1 1 0 0 0 0 0 0 0 0 0 0 0 0 0 0 0 0 0 0
0 0 0 0 0 0 0 0 0 0 0 0 0 0 0 0 0 0 0 0 0 0 0 0 0 0 0 0 0 0 0 0 0 0 0 0 0 0 0 0 0 0 0
0 0 0 0 0 0 0 0 0 0 0 0 0 0 0 0 0 0 0 0 0 0 0 0 0 0 0 0 0 0 0 0 0 0 0 0 0 0 0 0 0 0 0
0 0 0 0 0 0 0 0 0 0 0 0 0 0 0 0 0 0 0 0 0 0 0 0 0 0 0 0 0 0 0 0 0 0 0 0 0 0 0 0 0 0 0
0 0 0 0 0 0 0 0 0 0 0 0 0 0 0 0 0 0 0 0 0 0 0 0 0 0 0 0 0 0 0 0 0 0 0 0 0 0 0 0 0 0 0
0 0 0 0 0 0 0 0 0 0 0 0 0 0 0 0 0 0 0 0 0 0 0 0 0 0 0 0 0 0 0 0 0 0 0 0 0 0 0 0 0 0 0
0 0 0 0 0 0 0 0 0 0 0 0 0 0 0 0 0 0 0 0 0 0 0 0 0 0 0 0 0 0 0 0 0 0 0 0 0 0 0 0 0 0 0
0 0 0 0 0 0 0 0 0 0 0 0 0 0 0 0 0 0 0 0 0 0 0 0 0 0 0 0 0 0 0 0 0 0 0 0 0 0 0 0 0 0 0
0 0 0 0 0 0 0 0 0 0 0 0 0 0 0 0 0 0 0 0 0 0 0 0 0 0 0 0 0 0 0 0 0 0 0 0 0 0 0 0 0 0 0
0 0 0 0 0 0 0 0 0 0 0 0 0 0 0 0 0 0 0 0 0 0 0 0 0 0 0 0 0 0 0 0 0 0 0 0 0 0 0 0 0 0 0
Wind_Speed
2 1 1 1 1 1 1 1 1 1 1 1 1 0 0 0 1 1 1 2 2 1 1 1 2 1 1 1 1 1 1 1 1 1 1 0 0 1 1 2 2 3 4
2 1 2 1 1 1 1 1 1 1 1 1 1 1 1 0 0 1 1 2 2 2 1 1 1 1 1 1 1 1 1 1 1 2 2 2 2 1 1 1 2 3 3
3 3 2 2 1 1 1 1 1 1 1 1 0 0 1 1 1 1 1 1 2 1 1 1 1 1 1 1 1 1 2 1 1 2 2 2 2 2 1 1 1 2 3
3 3 3 3 3 2 2 1 1 1 1 1 1 2 1 2 1 1 1 1 1 2 2 2 1 1 1 1 2 2 2 2 2 1 2 2 2 2 2 1 1 3 3
4 3 3 3 3 3 2 1 1 1 1 1 2 2 2 2 1 1 1 1 1 1 1 2 2 1 1 1 1 1 2 2 2 2 2 2 2 2 3 4 3 3 3
3 3 3 2 2 2 2 2 2 2 2 2 2 3 3 3 2 2 1 1 1 1 1 1 1 1 1 1 1 1 1 1 2 2 2 2 2 2 3 4 5 5 4
3 3 3 3 3 2 2 2 2 2 2 2 3 3 4 4 4 3 2 2 1 1 1 1 1 1 1 1 1 1 1 1 2 2 2 2 3 3 3 4 5 6 5
3 3 4 4 3 3 3 3 3 3 3 3 3 3 3 3 2 3 2 2 1 1 1 1 1 1 1 1 1 1 1 1 2 2 2 2 2 3 3 3 4 5 5
4 4 4 4 4 4 4 4 4 4 3 3 3 3 3 2 2 2 2 2 1 1 1 1 1 1 1 1 1 1 1 1 2 2 2 2 2 3 3 3 4 5 6
4 4 4 4 4 4 4 4 4 4 4 3 3 2 3 3 3 2 2 2 1 1 1 1 1 1 1 1 1 1 1 1 2 2 2 3 3 3 3 3 4 4 6
4 4 4 4 4 4 4 4 4 4 4 3 3 3 3 3 3 2 2 2 2 1 2 1 1 1 1 1 1 1 2 2 2 2 3 3 4 3 3 3 3 4 5
5 4 4 4 4 4 4 4 4 4 4 3 3 3 3 3 3 3 3 3 3 2 2 2 1 1 1 1 2 2 2 2 3 3 3 4 3 4 4 4 4 5 5
5 4 4 4 4 4 4 4 4 4 4 3 3 3 3 3 3 3 3 3 3 2 2 2 2 2 2 2 2 3 3 3 4 4 4 5 4 5 4 5 5 5 5
5 5 5 5 4 5 5 4 4 4 3 3 3 3 3 3 3 3 3 3 3 3 2 3 3 3 3 3 3 3 3 4 4 4 5 5 5 6 6 5 6 5 6
6 6 6 5 5 4 4 4 4 3 3 3 3 4 3 3 3 3 3 2 2 3 3 3 3 3 3 3 3 3 4 4 5 5 5 5 6 7 6 5 5 6 5
7 7 6 6 6 5 5 4 4 3 3 3 3 3 3 3 3 3 2 2 3 3 3 3 4 4 3 3 4 4 4 5 5 5 5 5 5 6 7 8 8 8 7
8 8 7 7 6 5 5 5 4 3 3 3 3 3 3 3 3 3 2 2 3 3 3 3 4 4 4 4 5 6 5 5 5 6 5 5 4 5 6 7 8 8 9
8 8 7 6 5 4 3 3 2 2 3 3 3 3 3 3 3 3 3 3 3 3 3 4 4 4 4 5 6 6 6 6 6 6 6 6 6 5 6 6 7 8 8
7 6 5 5 4 3 3 3 2 2 3 3 3 3 3 3 3 3 4 3 3 3 4 4 4 4 5 4 5 5 4 5 6 6 6 6 6 7 7 7 8 9 8
4 4 3 3 3 3 3 3 3 3 3 4 3 3 3 3 3 4 4 3 3 3 3 3 4 5 5 5 5 5 3 4 5 5 5 6 7 8 9 7 8 9 9
4 3 3 3 3 3 3 4 3 4 4 2 2 2 3 3 3 3 2 2 2 2 3 4 4 4 5 6 6 6 4 4 5 5 5 5 8 10 11 9 7 9 9
3 3 3 3 2 3 3 4 4 3 2 2 2 2 2 3 2 2 2 2 2 3 3 3 4 4 4 5 6 7 7 6 5 5 5 5 8 10 10 8 8 10 8
3 3 3 3 2 2 3 4 4 2 1 2 2 2 2 2 2 2 2 2 2 3 3 3 4 4 3 4 6 7 8 8 6 5 7 8 8 9 7 8 9 7 5
4 3 3 3 3 3 3 4 2 1 2 3 3 2 2 2 2 2 3 3 3 3 3 3 4 4 4 3 3 3 4 6 6 5 5 8 9 8 7 5 5 4 5
4 4 4 5 4 3 3 3 2 2 3 3 3 3 3 3 3 3 3 4 4 4 4 4 4 4 5 5 6 4 4 4 4 4 4 4 4 5 5 5 4 5 5
4 4 4 5 4 3 3 3 2 3 4 3 3 3 3 3 3 3 3 5 6 6 7 7 6 5 6 7 7 7 7 6 5 4 4 5 5 6 6 6 6 5 5
Wind_Direction
317 345 339 341 334 351 360 344 322 303 291 275 258 253 303 14 22 24 20 16 9 2 350 328 332 340 336 317 301 280 282 343 338 299 326 299 162 59 21 13 12 18 12
299 318 332 342 318 328 329 290 284 281 290 302 300 263 257 259 302 344 7 10 3 348 343 326 317 322 299 301 308 311 276 305 310 282 279 267 229 182 323 353 15 6 1
274 290 304 305 296 297 292 284 292 295 289 275 244 182 229 234 239 300 332 353 350 348 341 316 311 328 311 291 287 279 269 277 274 291 281 273 276 320 245 306 339 353 345
262 278 295 300 295 290 283 279 286 291 279 251 221 223 236 246 254 284 305 334 344 344 335 312 307 320 315 305 293 290 277 270 267 272 292 302 310 278 285 261 305 329 320
257 260 267 274 283 288 288 275 266 264 262 244 235 227 244 252 242 243 279 295 310 316 325 325 319 329 334 321 308 301 294 284 282 282 286 284 288 271 274 285 301 305 302
267 269 275 279 281 295 289 280 258 259 258 241 235 230 236 237 230 232 246 262 277 288 320 331 332 334 336 330 319 307 299 292 289 290 292 287 280 277 275 283 296 299 300
264 266 268 268 270 276 280 274 258 256 258 249 241 239 242 240 232 236 240 244 253 275 305 313 310 319 327 324 318 316 316 303 291 287 290 291 291 290 277 277 289 293 295
251 253 255 257 259 259 260 258 252 250 250 250 248 244 242 240 242 242 253 250 255 272 302 292 296 304 300 294 300 305 311 321 316 312 303 295 291 287 279 277 285 292 287
253 253 258 259 261 259 255 252 250 251 250 253 253 251 248 247 249 243 245 257 266 271 281 277 285 292 289 284 289 296 309 319 311 306 301 293 296 294 293 287 278 281 291
263 257 259 263 266 263 259 254 251 253 255 251 243 242 246 247 249 246 244 251 259 252 242 253 256 271 283 278 279 296 302 297 296 300 299 297 297 296 295 288 281 274 276
263 258 261 265 264 260 253 249 250 252 252 247 240 232 238 246 246 243 246 242 236 234 237 237 242 252 266 280 277 277 280 281 288 289 287 289 291 290 290 286 280 275 272
265 265 264 267 262 256 249 245 243 243 246 243 237 233 238 241 241 240 241 238 233 228 235 234 236 247 260 264 258 263 270 274 279 283 286 287 289 287 287 284 280 278 276
274 273 265 263 262 256 247 243 240 239 237 232 229 234 237 240 244 243 240 237 237 236 234 232 234 239 242 246 252 259 266 270 275 278 278 280 283 283 283 283 280 280 280
266 263 261 258 260 252 243 237 235 233 229 223 223 233 240 242 249 252 245 240 241 239 237 238 240 241 241 244 250 258 266 273 277 278 276 278 276 277 281 280 280 284 285
263 257 257 256 254 250 240 234 236 232 220 219 224 236 244 247 246 249 248 240 239 240 239 242 247 248 247 249 256 262 267 272 274 275 276 277 278 279 281 281 284 285 284
261 258 256 252 245 240 238 233 233 227 216 220 231 238 237 238 240 246 245 241 242 244 240 241 245 248 246 257 261 267 266 265 267 273 276 277 272 277 278 281 285 286 283
259 256 253 250 243 236 231 231 231 219 214 225 233 232 232 237 242 245 241 245 246 243 244 253 254 254 255 260 263 263 265 267 267 271 275 276 278 278 280 283 282 281 278
255 254 252 250 244 235 228 225 217 211 217 228 233 233 235 239 245 246 245 250 249 246 249 252 256 263 268 266 267 271 261 267 269 270 273 275 280 279 285 289 288 286 284
249 252 247 242 231 221 212 197 204 208 219 235 240 238 233 236 238 245 250 249 248 249 253 259 261 263 269 273 275 277 267 266 271 272 273 274 277 284 289 288 287 288 289
244 245 238 220 217 217 192 188 205 207 230 241 241 236 230 231 236 244 252 254 251 256 264 265 264 266 273 280 278 275 266 272 278 278 276 272 275 285 288 281 281 282 287
242 232 216 212 217 197 178 196 210 227 240 240 233 234 237 239 242 246 247 251 253 263 267 271 276 275 276 281 278 276 267 269 275 277 278 276 278 282 286 284 278 280 291
235 221 214 215 207 183 185 206 228 242 230 212 217 229 238 242 241 243 251 251 248 251 263 274 282 279 280 280 284 283 274 277 272 272 276 280 286 288 288 286 286 292 293
229 215 210 210 207 191 195 217 240 229 201 200 219 231 235 238 237 234 239 243 245 250 259 266 277 284 285 282 280 279 279 275 273 277 283 287 289 290 284 282 288 287 278
218 206 198 211 222 208 209 229 239 194 190 212 224 224 226 235 233 237 236 239 240 247 255 261 270 280 285 283 284 281 281 277 276 282 286 288 287 282 283 286 280 272 271
207 196 206 219 228 217 221 229 217 192 207 222 225 224 226 233 237 239 243 245 248 251 256 258 261 268 273 278 283 286 283 283 282 293 285 282 283 280 278 278 275 273 269
201 199 209 219 228 221 231 233 212 200 210 223 227 225 226 229 236 246 264 261 263 276 273 275 278 276 281 297 287 280 282 285 290 286 274 274 275 275 277 278 278 274 271